Regional Weather Roundup
Issued by NWS

Home | Current Version | Previous Version | Graphics & Text | Print | Product List | Glossary On
Versions: 1 2 3 4 5 6 7 8 9 10 11 12 13 14 15 16 17 18 19 20 21 22 23 24 25 26 27 28 29 30 31 32 33 34 35 36 37 38 39 40 41 42 43 44 45 46 47 48 49 50
000
ASUS43 KMPX 040601
RWRMN
WEATHER ROUNDUP FOR MINNESOTA
NATIONAL WEATHER SERVICE TWIN CITIES/CHANHASSEN MN
100 AM CDT TUE AUG 04 2015


NOTE: "FAIR" INDICATES FEW OR NO CLOUDS BELOW 12,000 FEET WITH NO
SIGNIFICANT WEATHER AND/OR OBSTRUCTIONS TO VISIBILITY. N/A MEANS
CURRENT SKY AND/OR WEATHER CONDITIONS ARE NOT AVAILABLE.

MNZ060>063-068>070-040700-
   Twin Cities Metro

CITY           SKY/WX    TMP DP  RH WIND       PRES   REMARKS
TWIN CITIES    PTCLDY    66  53  63 NW8       29.94S
6HR MIN TEMP:  66; 6HR MAX TEMP:  77;

ST PAUL        CLEAR     66  53  63 N8        29.94R
CRYSTAL        CLEAR     66  53  63 N7        29.94R
BLAINE         CLEAR     63  54  72 NW5       29.95R
LAKEVILLE      CLEAR     59  54  82 W5        29.95R
EDEN PRAIRIE   CLEAR     65  53  65 NW6       29.94R
6HR MIN TEMP:  65; 6HR MAX TEMP:  78;

SOUTH ST PAUL  CLEAR     67  52  57 N5        29.94R
LAKE ELMO      FAIR      63  54  72 N3        29.96R
$$
MNZ001>005-007-008-013>017-022>024-027-028-040700-
   Northwest Minnesota

CITY           SKY/WX    TMP DP  RH WIND       PRES   REMARKS
BEMIDJI        CLEAR     53  46  77 W5        29.95R
HALLOCK        MOCLDY    54  50  87 CALM      29.94R
ROSEAU         CLEAR     55  50  82 CALM      29.93S
WARROAD        CLEAR     55  52  88 W3        29.93R
THIEF RVR FALL CLEAR     54  48  82 CALM      29.95R
CROOKSTON      CLEAR     57  54  88 CALM      29.95S
FOSSTON        CLEAR     48  46  93 CALM      29.97R
DETROIT LAKES  CLEAR     59  54  82 CALM      29.97F
MOORHEAD       CLEAR     55  50  82 S3        29.96S
PARK RAPIDS    CLEAR     55  48  77 CALM      29.96R
MAHNOMEN       FAIR      54  51  89 S3        29.96R
$$
MNZ006-009>011-018-025>026-040700-
   North Central Minnesota

CITY           SKY/WX    TMP DP  RH WIND       PRES   REMARKS
BAUDETTE       CLEAR     54  50  86 W6        29.91R
FLAG ISLAND    CLEAR     61  54  77 W9        29.90R
INTL FALLS     CLEAR     46  45  96 CALM      29.90R
6HR MIN TEMP:  45; 6HR MAX TEMP:  64;

WASKISH        CLEAR     63  55  77 W6        29.92R
BIG FORK       CLEAR     48  46  93 CALM      29.93R
LONGVILLE      CLEAR     52  50  93 CALM      29.95R
GRAND RAPIDS   CLEAR     57  52  82 W5        29.93R
CRANE LAKE     CLOUDY    55  54  94 NW1       29.90S
ORR            CLOUDY    52  48  87 CALM      29.88S
COOK           PTCLDY    48  48 100 CALM      29.91R FOG
WALKER         FAIR      51  48  92 W3        29.95R
$$
MNZ012-019>021-037-040700-
   Northeast Minnesota

CITY           SKY/WX    TMP DP  RH WIND       PRES   REMARKS
DULUTH         CLEAR     54  49  83 W7        29.91R
6HR MIN TEMP:  53; 6HR MAX TEMP:  68;

ELY            CLEAR     54  52  94 CALM      29.89S
HIBBING        CLEAR     47  45  93 CALM      29.91S
EVELETH        CLEAR     52  50  93 CALM      29.92R
DULUTH HARBOR  CLEAR     61  55  82 SW6       29.91R
TWO HARBORS    CLEAR     61  54  77 W5        29.87R
SILVER BAY     CLEAR     57  54  88 CALM      29.86R
GRAND MARAIS     N/A     53  50  89 CALM      29.84R
G MARAIS ARPRT CLOUDY    55  48  76 NW6       29.87R
$$
MNZ029>031-032-039>041-046>048-054>057-064-040700-
   West Central Minnesota

CITY           SKY/WX    TMP DP  RH WIND       PRES   REMARKS
FERGUS FALLS   CLEAR     57  54  88 CALM      29.97S
WHEATON        CLEAR     54  48  82 CALM      29.99S
MORRIS         CLEAR     55  52  88 CALM      29.97S
ALEXANDRIA     CLEAR     57  53  86 SW3       29.99S
ELBOW LAKE     FAIR      56  54  94 S3        29.98R
WADENA         CLEAR     52  46  82 CALM      29.96F
GLENWOOD       CLEAR     59  54  82 CALM      29.99S
APPLETON       CLEAR     55  52  88 NE5       29.97S
BENSON         CLEAR     52  48  87 CALM      29.98S
ORTONVILLE     CLEAR     59  52  77 CALM      29.98R
MADISON        CLEAR     55  52  88 CALM      29.98S
WILLMAR        FAIR      55  52  88 CALM      30.00R
$$
MNZ033>034-036-042>043-049>051-058-059-040700-
   Central Minnesota

CITY           SKY/WX    TMP DP  RH WIND       PRES   REMARKS
ST CLOUD       CLEAR     55  52  89 N3        29.96S
6HR MIN TEMP:  55; 6HR MAX TEMP:  75;

SAUK CENTRE    FAIR      53  50  91 CALM      29.98S
PAYNESVILLE    CLEAR     49  48  95 CALM      29.98R
AITKIN         CLEAR     52  46  82 CALM      29.93S HAZE
PINE RIVER     CLEAR     54  48  82 CALM      29.99R
BRAINERD       CLEAR     52  50  93 CALM      29.96R
STAPLES        CLEAR     55  48  76 CALM      29.96F
LONG PRAIRIE   FAIR      52  50  93 CALM      29.97F
LITCHFIELD     CLEAR     63  52  67 NW3       29.98R
BUFFALO        CLEAR     63  52  67 NW5       29.97R
$$
MNZ037-044-045-052-053-040700-
   East Central Minnesota

CITY           SKY/WX    TMP DP  RH WIND       PRES   REMARKS
PRINCETON      CLEAR     55  52  88 CALM      29.96R
MORA           CLEAR     54  52  94 CALM      29.97R
CAMBRIDGE      PTCLDY    57  50  77 CALM      29.93S
RUSH CITY      MOCLDY    53  51  94 CALM      29.94S
MOOSE LAKE     MOCLDY    50  50 100 SW3       29.92R
HINCKLEY       MOCLDY    54  54 100 CALM      29.94R
CLOQUET        PTCLDY    55  48  76 W3        29.92S
MCGREGOR       CLEAR     54  52  94 CALM      29.94S
$$
MNZ071>073-080-081-089-090-097-098-040700-
   Southwest Minnesota

CITY           SKY/WX    TMP DP  RH WIND       PRES   REMARKS
MONTEVIDEO     CLEAR     57  46  67 CALM      29.99S
GRANITE FALLS  CLEAR     52  51  94 CALM      30.00R
CANBY          CLEAR     55  51  89 CALM      30.00S
MARSHALL       CLEAR     55  50  82 W3        29.99S
REDWOOD FALLS  CLEAR     60  52  74 SW3       29.98R
OLIVIA         CLEAR     54  50  87 NW3       29.97S
PIPESTONE      CLEAR     63  55  77 CALM      30.01R
WINDOM         CLEAR     57  54  88 CALM      29.99S
WORTHINGTON    CLEAR     57  52  82 CALM      30.00S
JACKSON        CLEAR     59  57  94 CALM      30.00R
TRACY          CLEAR     63  55  77 CALM      30.00R
SLAYTON        CLEAR     60  56  88 CALM      30.01S
$$
MNZ065>067-074>077-082>085-091>093-040700-
   South Central Minnesota

CITY           SKY/WX    TMP DP  RH WIND       PRES   REMARKS
MANKATO        CLEAR     61  52  72 W6        29.97R
NEW ULM        CLEAR     55  52  88 W3        29.98R
ST JAMES         N/A     59  55  88 CALM      29.99R
FAIRMONT       CLEAR     61  52  72 CALM      29.97S
GLENCOE        CLEAR     59  54  83 NW5       29.97R
FARIBAULT      CLEAR     61  54  77 W5        29.96R
OWATONNA       CLEAR     57  54  88 CALM      29.97R
WASECA         CLEAR     54  52  94 CALM      29.98R
ALBERT LEA     CLEAR     57  55  94 CALM      29.97S
$$
MNZ078>079-086>088-094>096-040700-
   Southeast Minnesota

CITY           SKY/WX    TMP DP  RH WIND       PRES   REMARKS
ROCHESTER      CLEAR     57  52  83 W8        29.97R
6HR MIN TEMP:  56; 6HR MAX TEMP:  72;

RED WING       CLEAR     59  55  88 NW3       29.92S
STANTON        CLEAR     57  53  87 CALM      29.94R
DODGE CENTER   PTCLDY    55  52  88 W6        29.96S
WINONA         CLEAR     61  55  82 CALM      29.92S
AUSTIN         CLEAR     59  55  88 CALM      29.96S
PRESTON        CLEAR     58  51  78 W7        29.95F
$$
ABBREVIATIONS USED IN REMARKS
   TC - TEMPERATURES IN CELSIUS
  WCI - WIND CHILL INDEX
   HX - HEAT INDEX
  VSB - VISIBILITY
$$


USA.gov is the U.S. government's official web portal to all federal, state and local government web resources and services.